| time (UTC) | temp F | wind direction | speed MPH | gust MPH | rain 1hr in | rain 24hr in | rain mn in | humidity % | barometer mb |
| 20260506050142 | 57 | 313 | 0.0 | 2.0 | 0.00 | 0.00 | 0.00 | 79 | 1015.5 |
| 20260506045128 | 57 | 321 | 0.0 | 2.0 | 0.00 | 0.00 | 0.00 | 79 | 1015.1 |
| 20260506044620 | 57 | 317 | 1.0 | 2.0 | 0.00 | 0.00 | 0.00 | 79 | 1015.1 |
| 20260506043606 | 58 | 322 | 0.0 | 2.0 | 0.00 | 0.00 | 0.00 | 78 | 1015.1 |
| 20260506043059 | 58 | 318 | 1.0 | 2.0 | 0.00 | 0.00 | 0.00 | 77 | 1015.1 |
| 20260506042552 | 58 | 306 | 1.0 | 1.0 | 0.00 | 0.00 | 0.00 | 77 | 1014.8 |
| 20260506042045 | 58 | 278 | 0.0 | 1.0 | 0.00 | 0.00 | 0.00 | 76 | 1014.8 |
| 20260506041537 | 58 | 278 | 0.0 | 1.0 | 0.00 | 0.00 | 0.00 | 76 | 1014.8 |
| 20260506041029 | 58 | 278 | 0.0 | 1.0 | 0.00 | 0.00 | 0.00 | 76 | 1014.8 |
| 20260506040522 | 59 | 277 | 0.0 | 1.0 | 0.00 | 0.00 | 0.00 | 75 | 1014.8 |
| 20260506040015 | 59 | 277 | 1.0 | 1.0 | 0.00 | 0.00 | 0.00 | 75 | 1014.8 |
| 20260506035508 | 59 | 269 | 1.0 | 1.0 | 0.00 | 0.00 | 0.00 | 75 | 1014.8 |
| 20260506035001 | 59 | 270 | 1.0 | 1.0 | 0.00 | 0.00 | 0.00 | 75 | 1014.5 |
| 20260506033946 | 59 | 263 | 0.0 | 2.0 | 0.00 | 0.00 | 0.00 | 74 | 1014.5 |
| 20260506033439 | 59 | 262 | 0.0 | 2.0 | 0.00 | 0.00 | 0.00 | 74 | 1014.5 |
| 20260506032931 | 59 | 265 | 1.0 | 3.0 | 0.00 | 0.00 | 0.00 | 74 | 1014.5 |
| 20260506032424 | 59 | 258 | 1.0 | 3.0 | 0.00 | 0.00 | 0.00 | 73 | 1014.5 |
| 20260506031917 | 59 | 265 | 1.0 | 4.0 | 0.00 | 0.00 | 0.00 | 73 | 1014.1 |
| 20260506031410 | 59 | 241 | 2.0 | 4.0 | 0.00 | 0.00 | 0.00 | 73 | 1014.1 |
| 20260506030903 | 59 | 262 | 2.0 | 6.0 | 0.00 | 0.00 | 0.00 | 74 | 1014.1 |
| 20260506030355 | 59 | 222 | 4.0 | 6.0 | 0.00 | 0.00 | 0.00 | 73 | 1014.1 |
| 20260506025340 | 60 | 247 | 4.0 | 6.0 | 0.00 | 0.00 | 0.00 | 73 | 1013.8 |
| 20260506024833 | 60 | 248 | 2.0 | 6.0 | 0.00 | 0.00 | 0.00 | 73 | 1013.8 |
| 20260506024327 | 60 | 218 | 1.0 | 4.0 | 0.00 | 0.00 | 0.00 | 73 | 1013.8 |
| 20260506023820 | 60 | 273 | 2.0 | 4.0 | 0.00 | 0.00 | 0.00 | 73 | 1013.8 |
| 20260506023311 | 60 | 217 | 3.0 | 7.0 | 0.00 | 0.00 | 0.00 | 73 | 1013.8 |
| 20260506022804 | 60 | 241 | 4.0 | 10.0 | 0.00 | 0.00 | 0.00 | 72 | 1013.4 |
| 20260506021749 | 60 | 224 | 4.0 | 9.0 | 0.00 | 0.00 | 0.00 | 73 | 1013.4 |
| 20260506020735 | 60 | 215 | 6.0 | 8.0 | 0.00 | 0.00 | 0.00 | 73 | 1013.4 |
| 20260506020227 | 60 | 229 | 4.0 | 10.0 | 0.00 | 0.00 | 0.00 | 72 | 1013.4 |
| 20260506015720 | 60 | 234 | 5.0 | 10.0 | 0.00 | 0.00 | 0.00 | 72 | 1013.4 |
| 20260506014705 | 61 | 231 | 4.0 | 9.0 | 0.00 | 0.00 | 0.00 | 69 | 1013.4 |
| 20260506013651 | 61 | 261 | 3.0 | 11.0 | 0.00 | 0.00 | 0.00 | 68 | 1013.4 |
| 20260506013144 | 61 | 220 | 7.0 | 11.0 | 0.00 | 0.00 | 0.00 | 67 | 1013.1 |
| 20260506012637 | 61 | 268 | 8.0 | 9.0 | 0.00 | 0.00 | 0.00 | 68 | 1013.1 |
| 20260506012130 | 61 | 238 | 4.0 | 8.0 | 0.00 | 0.00 | 0.00 | 68 | 1013.1 |
| 20260506011622 | 61 | 252 | 3.0 | 8.0 | 0.00 | 0.00 | 0.00 | 68 | 1013.1 |
| 20260506010608 | 60 | 250 | 5.0 | 10.0 | 0.00 | 0.00 | 0.00 | 70 | 1013.4 |
| 20260506010100 | 60 | 274 | 3.0 | 10.0 | 0.00 | 0.00 | 0.00 | 70 | 1013.1 |
| 20260506005553 | 60 | 258 | 6.0 | 11.0 | 0.00 | 0.00 | 0.00 | 70 | 1013.1 |
| 20260506005045 | 60 | 160 | 7.0 | 11.0 | 0.00 | 0.00 | 0.00 | 70 | 1013.1 |
| 20260506004538 | 60 | 247 | 6.0 | 13.0 | 0.00 | 0.00 | 0.00 | 69 | 1013.1 |
| 20260506004031 | 60 | 283 | 4.0 | 14.0 | 0.00 | 0.00 | 0.00 | 69 | 1013.1 |
| 20260506003524 | 60 | 223 | 9.0 | 14.0 | 0.00 | 0.00 | 0.00 | 68 | 1013.1 |
| 20260506003016 | 60 | 223 | 9.0 | 11.0 | 0.00 | 0.00 | 0.00 | 67 | 1013.1 |
| 20260506002002 | 60 | 217 | 8.0 | 13.0 | 0.00 | 0.00 | 0.00 | 67 | 1013.1 |
| 20260506001455 | 60 | 232 | 5.0 | 17.0 | 0.00 | 0.00 | 0.00 | 67 | 1013.1 |
| 20260506000948 | 61 | 231 | 8.0 | 17.0 | 0.00 | 0.00 | 0.00 | 66 | 1013.1 |
| 20260506000440 | 61 | 248 | 9.0 | 13.0 | 0.00 | 0.00 | 0.00 | 65 | 1013.1 |
| 20260505235933 | 61 | 233 | 8.0 | 14.0 | 0.00 | 0.00 | 0.00 | 66 | 1013.1 |
| 20260505235426 | 61 | 241 | 6.0 | 15.0 | 0.00 | 0.00 | 0.00 | 65 | 1013.1 |
| 20260505234918 | 61 | 201 | 9.0 | 15.0 | 0.00 | 0.00 | 0.00 | 65 | 1013.1 |
| 20260505234410 | 61 | 250 | 8.0 | 15.0 | 0.00 | 0.00 | 0.00 | 66 | 1013.1 |
| 20260505233903 | 62 | 231 | 11.0 | 15.0 | 0.00 | 0.00 | 0.00 | 64 | 1013.1 |
| 20260505233356 | 62 | 37 | 6.0 | 17.0 | 0.00 | 0.00 | 0.00 | 65 | 1013.1 |
| 20260505232849 | 61 | 250 | 7.0 | 17.0 | 0.00 | 0.00 | 0.00 | 68 | 1013.1 |
| 20260505232342 | 61 | 262 | 7.0 | 16.0 | 0.00 | 0.00 | 0.00 | 71 | 1012.8 |
| 20260505231835 | 60 | 248 | 8.0 | 17.0 | 0.00 | 0.00 | 0.00 | 73 | 1013.1 |
| 20260505230819 | 59 | 244 | 8.0 | 18.0 | 0.00 | 0.00 | 0.00 | 75 | 1013.1 |
| 20260505230313 | 59 | 227 | 7.0 | 18.0 | 0.00 | 0.00 | 0.00 | 76 | 1013.4 |
| 20260505225805 | 60 | 211 | 6.0 | 19.0 | 0.00 | 0.00 | 0.00 | 74 | 1013.4 |
| 20260505225258 | 60 | 134 | 10.0 | 19.0 | 0.00 | 0.00 | 0.00 | 72 | 1013.4 |
| 20260505224243 | 60 | 248 | 7.0 | 19.0 | 0.00 | 0.00 | 0.00 | 72 | 1013.4 |
| 20260505223736 | 60 | 262 | 12.0 | 19.0 | 0.00 | 0.00 | 0.00 | 71 | 1013.4 |
| 20260505223229 | 60 | 242 | 11.0 | 22.0 | 0.00 | 0.00 | 0.00 | 71 | 1013.4 |
| 20260505222722 | 60 | 260 | 12.0 | 22.0 | 0.00 | 0.00 | 0.00 | 69 | 1013.4 |
| 20260505222215 | 61 | 248 | 11.0 | 18.0 | 0.00 | 0.00 | 0.00 | 70 | 1013.4 |
| 20260505221200 | 61 | 220 | 13.0 | 19.0 | 0.00 | 0.00 | 0.00 | 71 | 1013.4 |
| 20260505220653 | 61 | 197 | 12.0 | 19.0 | 0.00 | 0.00 | 0.00 | 71 | 1013.8 |
| 20260505220145 | 62 | 239 | 9.0 | 19.0 | 0.00 | 0.00 | 0.00 | 68 | 1013.8 |
| 20260505215131 | 61 | 235 | 15.0 | 21.0 | 0.00 | 0.00 | 0.00 | 69 | 1013.4 |
| 20260505214624 | 61 | 225 | 14.0 | 21.0 | 0.00 | 0.00 | 0.00 | 67 | 1013.8 |
| 20260505214116 | 60 | 168 | 9.0 | 17.0 | 0.00 | 0.00 | 0.00 | 70 | 1013.8 |
| 20260505213608 | 61 | 244 | 12.0 | 18.0 | 0.00 | 0.00 | 0.00 | 68 | 1013.8 |
| 20260505213101 | 61 | 229 | 13.0 | 19.0 | 0.00 | 0.00 | 0.00 | 66 | 1013.8 |
| 20260505212554 | 63 | 223 | 12.0 | 19.0 | 0.00 | 0.00 | 0.00 | 63 | 1014.1 |
| 20260505212046 | 62 | 241 | 4.0 | 16.0 | 0.00 | 0.00 | 0.00 | 65 | 1013.8 |
| 20260505211539 | 61 | 218 | 14.0 | 19.0 | 0.00 | 0.00 | 0.00 | 64 | 1013.8 |
| 20260505211032 | 61 | 297 | 8.0 | 19.0 | 0.00 | 0.00 | 0.00 | 61 | 1014.1 |
| 20260505210525 | 62 | 169 | 9.0 | 19.0 | 0.00 | 0.00 | 0.00 | 61 | 1013.8 |
| 20260505210018 | 61 | 245 | 8.0 | 19.0 | 0.00 | 0.00 | 0.00 | 61 | 1013.8 |
| 20260505205510 | 62 | 236 | 11.0 | 17.0 | 0.00 | 0.00 | 0.00 | 60 | 1013.8 |
| 20260505205004 | 62 | 245 | 11.0 | 17.0 | 0.00 | 0.00 | 0.00 | 57 | 1013.8 |
| 20260505204456 | 61 | 240 | 6.0 | 19.0 | 0.00 | 0.00 | 0.00 | 59 | 1013.8 |
| 20260505203949 | 62 | 224 | 10.0 | 19.0 | 0.00 | 0.00 | 0.00 | 63 | 1013.8 |
| 20260505203442 | 63 | 194 | 12.0 | 19.0 | 0.00 | 0.00 | 0.00 | 59 | 1013.8 |
| 20260505202934 | 62 | 261 | 6.0 | 18.0 | 0.00 | 0.00 | 0.00 | 64 | 1013.8 |
| 20260505202427 | 62 | 216 | 6.0 | 17.0 | 0.00 | 0.00 | 0.00 | 63 | 1013.8 |
| 20260505201920 | 62 | 269 | 11.0 | 17.0 | 0.00 | 0.00 | 0.00 | 63 | 1013.8 |
| 20260505201412 | 62 | 220 | 12.0 | 17.0 | 0.00 | 0.00 | 0.00 | 62 | 1013.8 |
| 20260505200906 | 62 | 197 | 10.0 | 17.0 | 0.00 | 0.00 | 0.00 | 60 | 1013.8 |
| 20260505200357 | 61 | 209 | 11.0 | 16.0 | 0.00 | 0.00 | 0.00 | 62 | 1013.8 |
| 20260505195850 | 61 | 247 | 9.0 | 16.0 | 0.00 | 0.00 | 0.00 | 65 | 1014.1 |
| 20260505195344 | 62 | 238 | 11.0 | 16.0 | 0.00 | 0.00 | 0.00 | 64 | 1014.1 |
| 20260505194835 | 62 | 203 | 9.0 | 17.0 | 0.00 | 0.00 | 0.00 | 60 | 1013.8 |
| 20260505194328 | 62 | 252 | 10.0 | 18.0 | 0.00 | 0.00 | 0.00 | 61 | 1014.1 |
| 20260505193314 | 62 | 227 | 15.0 | 18.0 | 0.00 | 0.00 | 0.00 | 56 | 1014.1 |
| 20260505192807 | 62 | 236 | 9.0 | 18.0 | 0.00 | 0.00 | 0.00 | 56 | 1014.1 |
| 20260505192259 | 62 | 228 | 10.0 | 18.0 | 0.00 | 0.00 | 0.00 | 61 | 1014.1 |
| 20260505191752 | 62 | 238 | 14.0 | 16.0 | 0.00 | 0.00 | 0.00 | 59 | 1014.1 |
| 20260505191245 | 62 | 249 | 12.0 | 16.0 | 0.00 | 0.00 | 0.00 | 59 | 1014.1 |
| 20260505190738 | 62 | 213 | 12.0 | 15.0 | 0.00 | 0.00 | 0.00 | 59 | 1013.8 |
| 20260505190230 | 62 | 245 | 11.0 | 17.0 | 0.00 | 0.00 | 0.00 | 59 | 1014.1 |
| 20260505185723 | 62 | 214 | 11.0 | 17.0 | 0.00 | 0.00 | 0.00 | 59 | 1014.1 |
| 20260505185215 | 62 | 218 | 8.0 | 16.0 | 0.00 | 0.00 | 0.00 | 59 | 1014.1 |
| 20260505184708 | 62 | 266 | 9.0 | 14.0 | 0.00 | 0.00 | 0.00 | 59 | 1014.1 |
| 20260505184201 | 62 | 247 | 9.0 | 14.0 | 0.00 | 0.00 | 0.00 | 59 | 1014.1 |
| 20260505183653 | 63 | 238 | 6.0 | 13.0 | 0.00 | 0.00 | 0.00 | 62 | 1014.1 |
| 20260505183146 | 62 | 162 | 4.0 | 14.0 | 0.00 | 0.00 | 0.00 | 64 | 1014.1 |
| 20260505182639 | 61 | 232 | 2.0 | 14.0 | 0.00 | 0.00 | 0.00 | 66 | 1014.1 |
| 20260505182132 | 61 | 292 | 8.0 | 14.0 | 0.00 | 0.00 | 0.00 | 66 | 1014.1 |
| 20260505181624 | 61 | 215 | 9.0 | 14.0 | 0.00 | 0.00 | 0.00 | 66 | 1014.1 |
| 20260505175555 | 60 | 252 | 7.0 | 13.0 | 0.00 | 0.00 | 0.00 | 71 | 1014.1 |
| 20260505175048 | 60 | 235 | 5.0 | 13.0 | 0.00 | 0.00 | 0.00 | 71 | 1013.8 |
| 20260505174540 | 60 | 197 | 8.0 | 14.0 | 0.00 | 0.00 | 0.00 | 73 | 1013.8 |
| 20260505174034 | 60 | 187 | 8.0 | 14.0 | 0.00 | 0.00 | 0.00 | 71 | 1013.8 |
| 20260505173019 | 60 | 238 | 3.0 | 10.0 | 0.00 | 0.00 | 0.00 | 72 | 1013.4 |
| 20260505172511 | 60 | 279 | 4.0 | 10.0 | 0.00 | 0.00 | 0.00 | 71 | 1013.8 |
| 20260505172005 | 60 | 275 | 4.0 | 10.0 | 0.00 | 0.00 | 0.00 | 71 | 1013.8 |
| 20260505171458 | 61 | 210 | 8.0 | 10.0 | 0.00 | 0.00 | 0.00 | 70 | 1013.4 |
| 20260505170950 | 60 | 214 | 7.0 | 11.0 | 0.00 | 0.00 | 0.00 | 71 | 1013.8 |
| 20260505170443 | 60 | 209 | 7.0 | 13.0 | 0.00 | 0.00 | 0.00 | 71 | 1013.4 |
| 20260505165936 | 61 | 244 | 6.0 | 13.0 | 0.00 | 0.00 | 0.00 | 70 | 1013.4 |
| 20260505165428 | 61 | 289 | 5.0 | 10.0 | 0.00 | 0.00 | 0.00 | 70 | 1013.4 |
| 20260505164920 | 61 | 205 | 5.0 | 10.0 | 0.00 | 0.00 | 0.00 | 69 | 1013.4 |
| 20260505164413 | 61 | 209 | 4.0 | 10.0 | 0.00 | 0.00 | 0.00 | 68 | 1013.4 |
| 20260505163906 | 61 | 252 | 2.0 | 10.0 | 0.00 | 0.00 | 0.00 | 67 | 1013.1 |
| 20260505163359 | 61 | 245 | 5.0 | 10.0 | 0.00 | 0.00 | 0.00 | 67 | 1013.1 |
| 20260505162851 | 61 | 189 | 5.0 | 9.0 | 0.00 | 0.00 | 0.00 | 68 | 1013.1 |
| 20260505161330 | 61 | 160 | 5.0 | 8.0 | 0.00 | 0.00 | 0.00 | 66 | 1013.1 |
| 20260505160823 | 61 | 202 | 4.0 | 8.0 | 0.00 | 0.00 | 0.00 | 67 | 1012.8 |
| 20260505160315 | 60 | 224 | 3.0 | 9.0 | 0.00 | 0.00 | 0.00 | 67 | 1012.8 |
| 20260505153231 | 61 | 291 | 0.0 | 4.0 | 0.00 | 0.00 | 0.00 | 65 | 1012.8 |
| 20260505152723 | 60 | 228 | 3.0 | 6.0 | 0.00 | 0.00 | 0.00 | 67 | 1012.8 |
| 20260505152216 | 60 | 243 | 4.0 | 4.0 | 0.00 | 0.00 | 0.00 | 66 | 1012.8 |
| 20260505151709 | 60 | 214 | 1.0 | 4.0 | 0.00 | 0.00 | 0.00 | 67 | 1012.8 |
| 20260505151202 | 60 | 172 | 2.0 | 4.0 | 0.00 | 0.00 | 0.00 | 68 | 1012.8 |
| 20260505150655 | 60 | 250 | 2.0 | 3.0 | 0.00 | 0.00 | 0.00 | 68 | 1012.8 |
| 20260505150148 | 61 | 105 | 1.0 | 3.0 | 0.00 | 0.00 | 0.00 | 68 | 1012.8 |
| 20260505140528 | 54 | 331 | 0.0 | 2.0 | 0.00 | 0.00 | 0.00 | 78 | 1012.4 |
| 20260505124839 | 54 | 304 | 2.0 | 2.0 | 0.00 | 0.00 | 0.00 | 80 | 1012.4 |
| 20260505124332 | 54 | 316 | 1.0 | 2.0 | 0.00 | 0.00 | 0.00 | 80 | 1012.4 |
| 20260505123318 | 54 | 304 | 1.0 | 2.0 | 0.00 | 0.00 | 0.00 | 80 | 1012.4 |
| 20260505122810 | 55 | 314 | 1.0 | 2.0 | 0.00 | 0.00 | 0.00 | 80 | 1012.1 |
| 20260505120741 | 55 | 320 | 2.0 | 2.0 | 0.00 | 0.00 | 0.00 | 81 | 1012.1 |
| 20260505120234 | 56 | 316 | 1.0 | 2.0 | 0.00 | 0.00 | 0.00 | 81 | 1012.1 |
| 20260505115727 | 56 | 318 | 1.0 | 2.0 | 0.00 | 0.00 | 0.00 | 82 | 1012.1 |
| 20260505114712 | 56 | 290 | 1.0 | 2.0 | 0.00 | 0.00 | 0.00 | 82 | 1012.1 |
| 20260505114205 | 56 | 287 | 1.0 | 2.0 | 0.00 | 0.00 | 0.00 | 81 | 1012.1 |
| 20260505113657 | 56 | 233 | 2.0 | 2.0 | 0.00 | 0.00 | 0.00 | 80 | 1012.4 |
| 20260505113150 | 56 | 226 | 2.0 | 2.0 | 0.00 | 0.00 | 0.00 | 80 | 1012.4 |
| 20260505112643 | 57 | 267 | 0.0 | 2.0 | 0.00 | 0.00 | 0.00 | 79 | 1012.1 |
| 20260505111629 | 57 | 296 | 1.0 | 2.0 | 0.00 | 0.00 | 0.00 | 79 | 1012.1 |
| 20260505111121 | 57 | 294 | 0.0 | 2.0 | 0.00 | 0.00 | 0.00 | 79 | 1012.1 |
| 20260505110106 | 57 | 281 | 0.0 | 3.0 | 0.00 | 0.00 | 0.00 | 79 | 1012.4 |
| 20260505102009 | 58 | 251 | 2.0 | 3.0 | 0.00 | 0.00 | 0.00 | 77 | 1012.4 |
| 20260505101501 | 58 | 284 | 2.0 | 3.0 | 0.00 | 0.00 | 0.00 | 76 | 1012.4 |
| 20260505100954 | 58 | 260 | 2.0 | 4.0 | 0.00 | 0.00 | 0.00 | 75 | 1012.4 |
| 20260505100447 | 58 | 284 | 3.0 | 4.0 | 0.00 | 0.00 | 0.00 | 74 | 1012.4 |
| 20260505095940 | 58 | 253 | 2.0 | 4.0 | 0.00 | 0.00 | 0.00 | 73 | 1012.4 |
| 20260505095433 | 58 | 294 | 2.0 | 4.0 | 0.00 | 0.00 | 0.00 | 72 | 1012.4 |
| 20260505094925 | 58 | 267 | 2.0 | 3.0 | 0.00 | 0.00 | 0.00 | 71 | 1012.4 |
| 20260505093911 | 58 | 260 | 3.0 | 3.0 | 0.00 | 0.00 | 0.00 | 71 | 1012.4 |
| 20260505093404 | 58 | 310 | 1.0 | 4.0 | 0.00 | 0.00 | 0.00 | 71 | 1012.4 |
| 20260505092856 | 58 | 264 | 1.0 | 4.0 | 0.00 | 0.00 | 0.00 | 71 | 1012.8 |
| 20260505092349 | 58 | 301 | 0.0 | 4.0 | 0.00 | 0.00 | 0.00 | 71 | 1012.8 |
| 20260505091842 | 58 | 320 | 1.0 | 4.0 | 0.00 | 0.00 | 0.00 | 71 | 1012.8 |
| 20260505091335 | 58 | 344 | 0.0 | 3.0 | 0.00 | 0.00 | 0.00 | 71 | 1012.8 |
| 20260505090827 | 58 | 282 | 1.0 | 4.0 | 0.00 | 0.00 | 0.00 | 71 | 1012.8 |
| 20260505090320 | 58 | 278 | 1.0 | 4.0 | 0.00 | 0.00 | 0.00 | 70 | 1013.1 |
| 20260505085812 | 58 | 306 | 3.0 | 4.0 | 0.00 | 0.00 | 0.00 | 70 | 1012.8 |
| 20260505085305 | 58 | 327 | 0.0 | 3.0 | 0.00 | 0.00 | 0.00 | 71 | 1013.1 |
| 20260505084758 | 58 | 312 | 1.0 | 3.0 | 0.00 | 0.00 | 0.00 | 72 | 1013.1 |
| 20260505084251 | 59 | 308 | 3.0 | 3.0 | 0.00 | 0.00 | 0.00 | 72 | 1013.1 |
| 20260505083744 | 59 | 303 | 2.0 | 3.0 | 0.00 | 0.00 | 0.00 | 73 | 1013.1 |
| 20260505083236 | 59 | 272 | 3.0 | 4.0 | 0.00 | 0.00 | 0.00 | 73 | 1013.1 |
| 20260505082729 | 59 | 318 | 1.0 | 4.0 | 0.00 | 0.00 | 0.00 | 74 | 1013.1 |
| 20260505081714 | 58 | 330 | 2.0 | 3.0 | 0.00 | 0.00 | 0.00 | 77 | 1013.1 |
| 20260505080153 | 58 | 321 | 1.0 | 2.0 | 0.00 | 0.00 | 0.00 | 79 | 1013.4 |
| 20260505075140 | 58 | 304 | 0.0 | 2.0 | 0.00 | 0.00 | 0.00 | 82 | 1013.4 |
| 20260505074631 | 58 | 285 | 0.0 | 1.0 | 0.00 | 0.00 | 0.00 | 84 | 1013.4 |
| 20260505074124 | 58 | 271 | 1.0 | 2.0 | 0.00 | 0.00 | 0.00 | 84 | 1013.4 |
| 20260505073617 | 58 | 251 | 1.0 | 2.0 | 0.00 | 0.00 | 0.00 | 84 | 1013.4 |
| 20260505072602 | 58 | 276 | 0.0 | 0.0 | 0.00 | 0.00 | 0.00 | 84 | 1013.4 |
| 20260505072055 | 58 | 283 | 0.0 | 0.0 | 0.00 | 0.00 | 0.00 | 85 | 1013.4 |
| 20260505071548 | 58 | 317 | 0.0 | 1.0 | 0.00 | 0.00 | 0.00 | 85 | 1013.8 |
| 20260505071040 | 58 | 317 | 0.0 | 1.0 | 0.00 | 0.00 | 0.00 | 85 | 1013.4 |
| 20260505070026 | 58 | 316 | 1.0 | 2.0 | 0.00 | 0.00 | 0.00 | 85 | 1013.4 |
| 20260505065518 | 58 | 318 | 1.0 | 2.0 | 0.00 | 0.00 | 0.00 | 86 | 1013.4 |
| 20260505065011 | 58 | 336 | 0.0 | 2.0 | 0.00 | 0.00 | 0.00 | 86 | 1013.4 |
| 20260505064504 | 58 | 346 | 0.0 | 2.0 | 0.00 | 0.00 | 0.00 | 86 | 1013.4 |
| 20260505063956 | 58 | 311 | 1.0 | 2.0 | 0.00 | 0.00 | 0.00 | 87 | 1013.4 |
| 20260505063449 | 58 | 263 | 1.0 | 2.0 | 0.00 | 0.00 | 0.00 | 87 | 1013.4 |
| 20260505062943 | 58 | 288 | 1.0 | 2.0 | 0.00 | 0.00 | 0.00 | 87 | 1013.4 |
| 20260505062435 | 58 | 275 | 0.0 | 3.0 | 0.00 | 0.00 | 0.00 | 87 | 1013.8 |
| 20260505061928 | 57 | 290 | 1.0 | 4.0 | 0.00 | 0.00 | 0.00 | 87 | 1013.4 |
| 20260505061420 | 57 | 251 | 3.0 | 3.0 | 0.00 | 0.00 | 0.00 | 87 | 1013.4 |
| 20260505060913 | 57 | 245 | 2.0 | 3.0 | 0.00 | 0.00 | 0.00 | 87 | 1013.4 |
| 20260505060405 | 58 | 251 | 2.0 | 4.0 | 0.00 | 0.00 | 0.00 | 86 | 1013.4 |
| 20260505055858 | 58 | 290 | 1.0 | 4.0 | 0.00 | 0.00 | 0.00 | 86 | 1013.8 |
| 20260505055351 | 58 | 227 | 3.0 | 3.0 | 0.00 | 0.00 | 0.00 | 86 | 1013.8 |
| 20260505054844 | 58 | 252 | 3.0 | 3.0 | 0.00 | 0.00 | 0.00 | 86 | 1013.8 |